Hourly Data Report for December 21, 2016

TORONTO CITY
ONTARIO

43°40'00.000" N
79°24'00.000" W
112.50 m
6158355
71508
XTO

Download Data

Hourly Data (December 2016)
Hourly Data Report for December 21, 2016
TIME
LST
Temp Definition
°C
Dew Point Definition
°C
Rel Hum Definition
%
Precip. Amount Definition
mm

Wind Dir Definition
10's deg

Wind Spd Definition
km/h
Visibility Definition
km
Stn Press Definition
kPa
Hmdx Definition


Wind Chill Definition


Weather Definition


00:00 -2.1 -8.9 60 0.0 LegendMM LegendMM   100.23     LegendNANA
01:00 -2.6 -9.0 61 0.0 LegendMM LegendMM   100.23     LegendNANA
02:00 -3.2 -9.2 63 0.0 LegendMM LegendMM   100.24     LegendNANA
03:00 -3.5 -8.8 67 0.0 LegendMM LegendMM   100.27     LegendNANA
04:00 -3.9 -8.5 70 0.0 LegendMM LegendMM   100.26     LegendNANA
05:00 -4.2 -8.2 74 0.0 LegendMM LegendMM   100.28     LegendNANA
06:00 -4.6 -8.1 76 0.0 LegendMM LegendMM   100.34     LegendNANA
07:00 -3.8 -7.2 77 0.0 LegendMM LegendMM   100.41     LegendNANA
08:00 -3.9 -7.0 79 0.0 LegendMM LegendMM   100.45     LegendNANA
09:00 -3.6 -6.7 79 0.0 LegendMM LegendMM   100.51     LegendNANA
10:00 -2.7 -5.6 80 0.0 LegendMM LegendMM   100.61     LegendNANA
11:00 -2.5 -5.8 78 0.0 LegendMM LegendMM   100.65     LegendNANA
12:00 -1.3 -5.4 74 0.0 LegendMM LegendMM   100.62     LegendNANA
13:00 -1.1 -5.2 73 0.0 LegendMM LegendMM   100.52     LegendNANA
14:00 -0.6 -4.7 74 0.0 LegendMM LegendMM   100.49     LegendNANA
15:00 -0.4 -4.3 75 0.0 LegendMM LegendMM   100.50     LegendNANA
16:00 -0.2 -4.0 75 0.0 LegendMM LegendMM   100.54     LegendNANA
17:00 -0.1 -3.6 77 0.0 LegendMM LegendMM   100.53     LegendNANA
18:00 -0.3 -3.6 79 0.0 LegendMM LegendMM   100.53     LegendNANA
19:00 -0.3 -3.5 79 0.0 LegendMM LegendMM   100.48     LegendNANA
20:00 -0.2 -3.2 80 0.0 LegendMM LegendMM   100.43     LegendNANA
21:00 0.1 -2.7 81 0.0 LegendMM LegendMM   100.37     LegendNANA
22:00 -0.5 -1.4 93 0.7 LegendMM LegendMM   100.28     LegendNANA
23:00 0.6 0.0 96 0.8 LegendMM LegendMM   100.19     LegendNANA

Notes on Data Quality.

Legend

  • E = Estimated
  • M = Missing
  • NA = Not Available*
  • [empty] = Indicates an unobserved value
Date modified: